Plattsburgh, NY

1:21 PM EDT on June 25, 2017 (GMT -0400)
Plattsburgh International

Weather History for KPBG - January, 2013

Change the Weather History Date:

Saturday, January 26, 2013

  Actual Average Record
Temperature  
Mean Temperature 6 °F 16 °F  
Max Temperature 15 °F 27 °F 59 °F (1950)
Min Temperature -4 °F 5 °F -17 °F (1966)
Degree Days  
Heating Degree Days 59 49  
Month to date heating degree days 1218 1249  
Since 1 July heating degree days 3877 4135  
Cooling Degree Days 0 0  
Month to date cooling degree days 0  
Year to date cooling degree days 0  
Moisture  
Dew Point -1 °F    
Average Humidity 64    
Maximum Humidity 91    
Minimum Humidity 36    
Precipitation  
Precipitation T in - 0.90 in (1986)
Month to date precipitation 0.31  
Year to date precipitation 0.31  
Sea Level Pressure  
Sea Level Pressure 30.23 in    
Wind  
Wind Speed 5 mph (NW)    
Max Wind Speed 14 mph    
Max Gust Speed 18 mph    
Visibility 10 miles    
Events Snow    
T = Trace of Precipitation, MM = Missing Value Source: NWS Daily Summary

Daily Weather History Graph

Daily Weather History Graph

Search for Another Location

Airport or City:

Trip Planner

Search our weather history database for the weather conditions in past years. The results will help you decide how hot, cold, wet, or windy it might be!

Date:

Astronomy

Jan. 26, 2013 Rise Set
Actual Time 7:18 AM EST 4:54 PM EST
Civil Twilight 6:47 AM EST 5:26 PM EST
Nautical Twilight 6:12 AM EST 6:01 PM EST
Astronomical Twilight 5:37 AM EST 6:35 PM EST
Moon 4:48 PM EST (1/26) 6:33 AM EST (1/26)
Length of Visible Light 10h 38m
Length of Day
9h 35m
Full, 100% of the Moon is Illuminated
Jan 26
Full
Jan 26
Full
Feb 3
Last Quarter
Feb 10
New
Feb 17
First Quarter

Hourly Weather History & Observations

Time (EST) Temp. Windchill Dew Point Humidity Pressure Visibility Wind Dir Wind Speed Gust Speed Precip Events Conditions
12:53 AM 7.0 °F -1.7 °F 1.9 °F 80% 30.13 in 9.0 mi North 4.6 mph - N/A   Overcast
1:53 AM 6.1 °F - 1.9 °F 83% 30.14 in 5.0 mi Calm Calm - 0.00 in Snow Light Snow
2:53 AM 5.0 °F -2.1 °F 1.0 °F 84% 30.14 in 10.0 mi WNW 3.5 mph - 0.00 in   Partly Cloudy
3:53 AM 3.9 °F -3.4 °F -0.9 °F 80% 30.13 in 10.0 mi NW 3.5 mph - N/A   Clear
4:53 AM -0.0 °F -7.9 °F -2.9 °F 88% 30.14 in 10.0 mi WNW 3.5 mph - N/A   Clear
5:53 AM -2.0 °F -12.2 °F -6.0 °F 83% 30.17 in 10.0 mi NW 4.6 mph - N/A   Clear
6:53 AM -4.0 °F - -8.0 °F 83% 30.17 in 10.0 mi Calm Calm - N/A   Clear
7:53 AM -0.9 °F -8.9 °F -6.0 °F 79% 30.20 in 10.0 mi WNW 3.5 mph - N/A   Clear
8:53 AM 3.0 °F -8.0 °F -4.0 °F 73% 30.21 in 10.0 mi NNW 5.8 mph - N/A   Clear
9:53 AM 7.0 °F -4.5 °F -2.9 °F 64% 30.22 in 10.0 mi North 6.9 mph - 0.00 in   Clear
10:53 AM 10.0 °F -1.9 °F -4.0 °F 53% 30.22 in 10.0 mi North 8.1 mph - N/A   Clear
11:53 AM 10.0 °F -0.9 °F -2.9 °F 56% 30.21 in 10.0 mi ENE 6.9 mph - N/A   Clear
12:53 PM 12.0 °F 5.9 °F -0.0 °F 59% 30.20 in 10.0 mi Variable 3.5 mph - N/A   Clear
1:53 PM 15.1 °F 3.3 °F -8.0 °F 36% 30.20 in 10.0 mi NW 9.2 mph - N/A   Clear
2:53 PM 15.1 °F 2.5 °F -2.0 °F 47% 30.23 in 10.0 mi NW 10.4 mph - N/A   Overcast
3:53 PM 15.1 °F 4.2 °F -0.0 °F 51% 30.23 in 10.0 mi NW 8.1 mph - N/A   Partly Cloudy
4:53 PM 14.0 °F 2.9 °F -0.0 °F 54% 30.25 in 10.0 mi NW 8.1 mph - N/A   Scattered Clouds
5:53 PM 12.9 °F 3.8 °F -0.0 °F 56% 30.26 in 10.0 mi WNW 5.8 mph - N/A   Partly Cloudy
6:53 PM 10.9 °F - -0.0 °F 61% 30.28 in 10.0 mi Calm Calm - N/A   Overcast
7:53 PM 10.0 °F 3.6 °F -0.0 °F 64% 30.28 in 10.0 mi Variable 3.5 mph - N/A   Clear
8:53 PM 10.0 °F 3.6 °F -0.0 °F 64% 30.28 in 10.0 mi WSW 3.5 mph - N/A   Clear
9:53 PM 8.1 °F - -0.0 °F 70% 30.30 in 10.0 mi Calm Calm - N/A   Clear
10:53 PM 6.1 °F -2.8 °F 1.0 °F 80% 30.32 in 10.0 mi NW 4.6 mph - N/A   Scattered Clouds
11:02 PM 6.8 °F -0.1 °F 1.4 °F 79% 30.30 in 10.0 mi WNW 3.5 mph - N/A   Mostly Cloudy
11:33 PM 8.6 °F 0.1 °F 3.2 °F 79% 30.31 in 10.0 mi NW 4.6 mph - N/A   Scattered Clouds
11:53 PM 10.9 °F 0.2 °F 3.0 °F 70% 30.33 in 10.0 mi NW 6.9 mph - N/A   Clear